| time (UTC) | temp F | wind direction | speed MPH | gust MPH | rain 1hr in | rain 24hr in | rain mn in | humidity % | barometer mb |
| 20260906001956 | 64 | 289 | 7.0 | 11.0 | 0.00 | 0.00 | 0.00 | 79 | 1021.0 |
| 20260906000955 | 64 | 289 | 7.0 | 11.0 | 0.00 | 0.00 | 0.00 | 79 | 1021.0 |
| 20260905235955 | 64 | 289 | 7.0 | 11.0 | 0.00 | 0.00 | 0.00 | 79 | 1021.0 |
| 20260905234954 | 64 | 289 | 7.0 | 11.0 | 0.00 | 0.00 | 0.00 | 79 | 1021.0 |
| 20260905233954 | 64 | 289 | 7.0 | 11.0 | 0.00 | 0.00 | 0.00 | 79 | 1021.0 |
| 20260905232953 | 64 | 289 | 7.0 | 11.0 | 0.00 | 0.00 | 0.00 | 79 | 1021.0 |
| 20260905231953 | 64 | 289 | 7.0 | 11.0 | 0.00 | 0.00 | 0.00 | 79 | 1021.0 |
| 20260905230952 | 64 | 289 | 7.0 | 11.0 | 0.00 | 0.00 | 0.00 | 79 | 1021.0 |
| 20260905225952 | 64 | 289 | 7.0 | 11.0 | 0.00 | 0.00 | 0.00 | 79 | 1021.0 |
| 20260905224951 | 69 | 302 | 7.0 | 13.0 | 0.00 | 0.00 | 0.00 | 64 | 1021.0 |
| 20260905223950 | 69 | 302 | 7.0 | 13.0 | 0.00 | 0.00 | 0.00 | 64 | 1021.0 |
| 20260905222950 | 69 | 302 | 7.0 | 13.0 | 0.00 | 0.00 | 0.00 | 64 | 1021.0 |
| 20260905221950 | 69 | 302 | 7.0 | 13.0 | 0.00 | 0.00 | 0.00 | 64 | 1021.0 |
| 20260905220948 | 69 | 302 | 7.0 | 13.0 | 0.00 | 0.00 | 0.00 | 64 | 1021.0 |
| 20260905215947 | 69 | 302 | 7.0 | 13.0 | 0.00 | 0.00 | 0.00 | 64 | 1021.0 |
| 20260905214947 | 69 | 302 | 7.0 | 13.0 | 0.00 | 0.00 | 0.00 | 64 | 1021.0 |
| 20260905213947 | 69 | 302 | 7.0 | 13.0 | 0.00 | 0.00 | 0.00 | 64 | 1021.0 |
| 20260905212946 | 69 | 302 | 7.0 | 13.0 | 0.00 | 0.00 | 0.00 | 64 | 1020.0 |
| 20260905211946 | 69 | 302 | 7.0 | 13.0 | 0.00 | 0.00 | 0.00 | 64 | 1020.0 |
| 20260905210945 | 69 | 302 | 7.0 | 13.0 | 0.00 | 0.00 | 0.00 | 64 | 1020.0 |
| 20260905205945 | 69 | 302 | 7.0 | 13.0 | 0.00 | 0.00 | 0.00 | 64 | 1020.0 |
| 20260905204944 | 69 | 302 | 7.0 | 13.0 | 0.00 | 0.00 | 0.00 | 64 | 1020.0 |
| 20260905203944 | 69 | 302 | 7.0 | 13.0 | 0.00 | 0.00 | 0.00 | 64 | 1020.0 |
| 20260905202944 | 69 | 302 | 7.0 | 13.0 | 0.00 | 0.00 | 0.00 | 64 | 1020.0 |
| 20260905201943 | 69 | 302 | 7.0 | 13.0 | 0.00 | 0.00 | 0.00 | 64 | 1020.0 |
| 20260905200943 | 69 | 302 | 7.0 | 13.0 | 0.00 | 0.00 | 0.00 | 64 | 1020.0 |
| 20260905195942 | 69 | 302 | 7.0 | 13.0 | 0.00 | 0.00 | 0.00 | 64 | 1020.0 |
| 20260905194942 | 69 | 302 | 7.0 | 13.0 | 0.00 | 0.00 | 0.00 | 64 | 1020.0 |
| 20260905193941 | 69 | 302 | 7.0 | 13.0 | 0.00 | 0.00 | 0.00 | 64 | 1020.0 |
| 20260905192941 | 69 | 302 | 7.0 | 13.0 | 0.00 | 0.00 | 0.00 | 64 | 1019.0 |
| 20260905191941 | 69 | 302 | 7.0 | 13.0 | 0.00 | 0.00 | 0.00 | 64 | 1019.0 |
| 20260905190940 | 69 | 302 | 7.0 | 13.0 | 0.00 | 0.00 | 0.00 | 64 | 1019.0 |
| 20260905185940 | 69 | 302 | 7.0 | 13.0 | 0.00 | 0.00 | 0.00 | 64 | 1019.0 |
| 20260905184939 | 69 | 302 | 7.0 | 13.0 | 0.00 | 0.00 | 0.00 | 64 | 1019.0 |
| 20260905183939 | 71 | 298 | 7.0 | 17.0 | 0.00 | 0.00 | 0.00 | 68 | 1019.0 |
| 20260905182938 | 71 | 298 | 7.0 | 17.0 | 0.00 | 0.00 | 0.00 | 68 | 1018.0 |
| 20260905181938 | 71 | 298 | 7.0 | 17.0 | 0.00 | 0.00 | 0.00 | 68 | 1018.0 |
| 20260905180938 | 71 | 298 | 7.0 | 17.0 | 0.09 | 0.00 | 0.00 | 68 | 1018.0 |
| 20260905175937 | 71 | 298 | 7.0 | 17.0 | 0.08 | 0.00 | 0.00 | 68 | 1019.0 |
| 20260905174937 | 71 | 298 | 7.0 | 17.0 | 0.08 | 0.00 | 0.00 | 68 | 1019.0 |
| 20260905173936 | 74 | 293 | 7.0 | 15.0 | 0.06 | 0.00 | 0.00 | 41 | 1019.0 |
| 20260905172936 | 74 | 293 | 7.0 | 15.0 | 0.00 | 0.00 | 0.00 | 41 | 1018.0 |
| 20260905171935 | 74 | 293 | 7.0 | 15.0 | 0.00 | 0.00 | 0.00 | 41 | 1018.0 |
| 20260905170935 | 74 | 293 | 7.0 | 15.0 | 0.00 | 0.00 | 0.00 | 41 | 1018.0 |
| 20260905165934 | 79 | 293 | 7.0 | 15.0 | 0.00 | 0.00 | 0.00 | 35 | 1018.0 |
| 20260905164934 | 79 | 293 | 7.0 | 15.0 | 0.00 | 0.00 | 0.00 | 35 | 1018.0 |
| 20260905163934 | 77 | 299 | 13.0 | 24.0 | 0.00 | 0.00 | 0.00 | 35 | 1018.0 |
| 20260905162933 | 77 | 299 | 13.0 | 24.0 | 0.00 | 0.00 | 0.00 | 35 | 1018.0 |
| 20260905161933 | 77 | 299 | 13.0 | 24.0 | 0.00 | 0.00 | 0.00 | 35 | 1018.0 |
| 20260905160932 | 77 | 299 | 13.0 | 24.0 | 0.00 | 0.00 | 0.00 | 35 | 1018.0 |
| 20260905155932 | 77 | 299 | 13.0 | 24.0 | 0.00 | 0.00 | 0.00 | 35 | 1019.0 |
| 20260905154931 | 77 | 299 | 13.0 | 24.0 | 0.00 | 0.00 | 0.00 | 35 | 1019.0 |
| 20260905153931 | 82 | 328 | 21.0 | 21.0 | 0.00 | 0.00 | 0.00 | 32 | 1019.0 |
| 20260905152930 | 82 | 328 | 21.0 | 21.0 | 0.00 | 0.00 | 0.00 | 32 | 1017.0 |
| 20260905151930 | 82 | 328 | 21.0 | 21.0 | 0.00 | 0.00 | 0.00 | 32 | 1017.0 |
| 20260905150929 | 82 | 328 | 21.0 | 21.0 | 0.00 | 0.00 | 0.00 | 32 | 1017.0 |
| 20260905145929 | 82 | 328 | 21.0 | 21.0 | 0.00 | 0.00 | 0.00 | 32 | 1018.0 |
| 20260905144928 | 82 | 328 | 21.0 | 21.0 | 0.00 | 0.00 | 0.00 | 32 | 1018.0 |
| 20260905143927 | 82 | 328 | 21.0 | 21.0 | 0.00 | 0.00 | 0.00 | 32 | 1018.0 |
| 20260905142927 | 82 | 328 | 21.0 | 21.0 | 0.00 | 0.00 | 0.00 | 32 | 1017.0 |
| 20260905141926 | 82 | 328 | 21.0 | 21.0 | 0.00 | 0.00 | 0.00 | 32 | 1017.0 |
| 20260905140926 | 82 | 328 | 21.0 | 21.0 | 0.00 | 0.00 | 0.00 | 32 | 1017.0 |
| 20260905135926 | 82 | 328 | 21.0 | 21.0 | 0.00 | 0.00 | 0.00 | 32 | 1018.0 |
| 20260905134925 | 82 | 328 | 21.0 | 21.0 | 0.00 | 0.00 | 0.00 | 32 | 1018.0 |
| 20260905133925 | 82 | 328 | 21.0 | 21.0 | 0.00 | 0.00 | 0.00 | 33 | 1018.0 |
| 20260905132924 | 82 | 328 | 21.0 | 21.0 | 0.00 | 0.00 | 0.00 | 33 | 1017.0 |
| 20260905131924 | 82 | 328 | 21.0 | 21.0 | 0.00 | 0.00 | 0.00 | 35 | 1018.0 |
| 20260905130923 | 82 | 328 | 21.0 | 21.0 | 0.00 | 0.00 | 0.00 | 35 | 1018.0 |
| 20260905125923 | 82 | 328 | 21.0 | 21.0 | 0.00 | 0.00 | 0.00 | 35 | 1018.0 |
| 20260905124923 | 82 | 328 | 21.0 | 21.0 | 0.00 | 0.00 | 0.00 | 35 | 1018.0 |
| 20260905123922 | 82 | 328 | 21.0 | 21.0 | 0.00 | 0.00 | 0.00 | 35 | 1018.0 |
| 20260905122922 | 82 | 328 | 21.0 | 21.0 | 0.00 | 0.00 | 0.00 | 35 | 1017.0 |
| 20260905121921 | 82 | 328 | 21.0 | 21.0 | 0.00 | 0.00 | 0.00 | 35 | 1017.0 |
| 20260905120921 | 82 | 328 | 21.0 | 21.0 | 0.00 | 0.00 | 0.00 | 35 | 1017.0 |
| 20260905115920 | 82 | 328 | 21.0 | 21.0 | 0.00 | 0.00 | 0.00 | 35 | 1017.0 |
| 20260905114920 | 82 | 328 | 21.0 | 21.0 | 0.00 | 0.00 | 0.00 | 35 | 1017.0 |
| 20260905113919 | 87 | 333 | 20.0 | 18.0 | 0.00 | 0.00 | 0.00 | 23 | 1017.0 |
| 20260905112919 | 87 | 333 | 20.0 | 18.0 | 0.00 | 0.00 | 0.00 | 23 | 1016.0 |
| 20260905111919 | 87 | 333 | 20.0 | 18.0 | 0.00 | 0.00 | 0.00 | 23 | 1016.0 |
| 20260905110917 | 87 | 333 | 20.0 | 18.0 | 0.00 | 0.00 | 0.00 | 23 | 1016.0 |
| 20260905105917 | 87 | 333 | 20.0 | 18.0 | 0.00 | 0.00 | 0.00 | 23 | 1016.0 |
| 20260905104916 | 87 | 333 | 20.0 | 19.0 | 0.00 | 0.00 | 0.00 | 23 | 1016.0 |
| 20260905103916 | 96 | 331 | 14.0 | 15.0 | 0.00 | 0.00 | 0.00 | 21 | 1016.0 |
| 20260905102915 | 96 | 331 | 14.0 | 15.0 | 0.00 | 0.00 | 0.00 | 21 | 1016.0 |
| 20260905101915 | 96 | 331 | 14.0 | 15.0 | 0.00 | 0.00 | 0.00 | 21 | 1016.0 |
| 20260905100914 | 96 | 331 | 14.0 | 15.0 | 0.00 | 0.00 | 0.00 | 21 | 1016.0 |
| 20260905095914 | 96 | 331 | 14.0 | 15.0 | 0.00 | 0.00 | 0.00 | 21 | 1016.0 |
| 20260905094913 | 85 | 331 | 14.0 | 15.0 | 0.00 | 0.00 | 0.00 | 34 | 1016.0 |
| 20260905093913 | 84 | 325 | 10.0 | 13.0 | 0.00 | 0.00 | 0.00 | 36 | 1016.0 |
| 20260905092913 | 84 | 325 | 10.0 | 13.0 | 0.00 | 0.00 | 0.00 | 36 | 1015.0 |
| 20260905091911 | 84 | 325 | 10.0 | 13.0 | 0.00 | 0.00 | 0.00 | 36 | 1015.0 |
| 20260905090911 | 84 | 325 | 10.0 | 13.0 | 0.00 | 0.00 | 0.00 | 36 | 1015.0 |
| 20260905085910 | 84 | 325 | 10.0 | 13.0 | 0.00 | 0.00 | 0.00 | 36 | 1015.0 |
| 20260905084910 | 84 | 325 | 10.0 | 13.0 | 0.00 | 0.00 | 0.00 | 36 | 1015.0 |
| 20260905083910 | 80 | 269 | 8.0 | 11.0 | 0.00 | 0.00 | 0.00 | 36 | 1015.0 |
| 20260905082909 | 80 | 269 | 8.0 | 11.0 | 0.00 | 0.00 | 0.00 | 36 | 1015.0 |
| 20260905081908 | 80 | 269 | 8.0 | 11.0 | 0.00 | 0.00 | 0.00 | 36 | 1015.0 |
| 20260905080908 | 80 | 269 | 8.0 | 11.0 | 0.00 | 0.00 | 0.00 | 36 | 1015.0 |
| 20260905075908 | 80 | 269 | 8.0 | 11.0 | 0.00 | 0.00 | 0.00 | 36 | 1015.0 |
| 20260905074908 | 80 | 269 | 8.0 | 11.0 | 0.00 | 0.00 | 0.00 | 36 | 1015.0 |
| 20260905073907 | 80 | 269 | 8.0 | 11.0 | 0.00 | 0.00 | 0.00 | 36 | 1015.0 |
| 20260905072907 | 80 | 269 | 8.0 | 11.0 | 0.00 | 0.00 | 0.00 | 36 | 1015.0 |
| 20260905071906 | 80 | 269 | 8.0 | 11.0 | 0.00 | 0.00 | 0.00 | 36 | 1015.0 |
| 20260905070906 | 80 | 269 | 8.0 | 11.0 | 0.00 | 0.00 | 0.00 | 36 | 1015.0 |
| 20260905065905 | 80 | 269 | 9.0 | 12.0 | 0.00 | 0.00 | 0.00 | 36 | 1015.0 |
| 20260905064905 | 80 | 269 | 9.0 | 12.0 | 0.00 | 0.00 | 0.00 | 36 | 1015.0 |
| 20260905063905 | 71 | 204 | 8.0 | 24.0 | 0.00 | 0.00 | 0.00 | 46 | 1015.0 |
| 20260905062904 | 71 | 204 | 8.0 | 24.0 | 0.00 | 0.00 | 0.00 | 46 | 1014.0 |
| 20260905061904 | 71 | 204 | 8.0 | 24.0 | 0.00 | 0.00 | 0.00 | 46 | 1014.0 |
| 20260905060903 | 71 | 204 | 8.0 | 24.0 | 0.00 | 0.00 | 0.00 | 46 | 1014.0 |
| 20260905055903 | 71 | 204 | 8.0 | 24.0 | 0.00 | 0.00 | 0.00 | 46 | 1015.0 |
| 20260905054903 | 71 | 204 | 8.0 | 24.0 | 0.00 | 0.00 | 0.00 | 46 | 1015.0 |
| 20260905053902 | 71 | 204 | 8.0 | 24.0 | 0.00 | 0.00 | 0.00 | 46 | 1015.0 |
| 20260905052902 | 71 | 204 | 8.0 | 24.0 | 0.00 | 0.00 | 0.00 | 46 | 1015.0 |
| 20260905051902 | 71 | 204 | 8.0 | 24.0 | 0.00 | 0.00 | 0.00 | 46 | 1015.0 |
| 20260905050901 | 71 | 204 | 8.0 | 24.0 | 0.00 | 0.00 | 0.00 | 46 | 1015.0 |
| 20260905045901 | 71 | 204 | 8.0 | 24.0 | 0.00 | 0.00 | 0.00 | 46 | 1015.0 |
| 20260905044900 | 71 | 204 | 8.0 | 24.0 | 0.00 | 0.00 | 0.00 | 46 | 1015.0 |
| 20260905043900 | 71 | 204 | 8.0 | 24.0 | 0.00 | 0.00 | 0.00 | 46 | 1015.0 |
| 20260905042859 | 71 | 204 | 8.0 | 24.0 | 0.00 | 0.00 | 0.00 | 46 | 1014.0 |
| 20260905041859 | 71 | 204 | 8.0 | 24.0 | 0.00 | 0.00 | 0.00 | 46 | 1014.0 |
| 20260905040859 | 71 | 204 | 8.0 | 24.0 | 0.00 | 0.00 | 0.00 | 46 | 1014.0 |
| 20260905035858 | 71 | 204 | 8.0 | 24.0 | 0.00 | 0.00 | 0.00 | 46 | 1014.0 |
| 20260905034858 | 71 | 204 | 8.0 | 24.0 | 0.00 | 0.00 | 0.00 | 46 | 1014.0 |
| 20260905033857 | 71 | 204 | 8.0 | 24.0 | 0.00 | 0.00 | 0.00 | 46 | 1014.0 |
| 20260905032857 | 71 | 204 | 8.0 | 24.0 | 0.00 | 0.00 | 0.00 | 46 | 1014.0 |
| 20260905031856 | 71 | 204 | 8.0 | 24.0 | 0.00 | 0.00 | 0.00 | 46 | 1014.0 |
| 20260905030856 | 71 | 204 | 8.0 | 24.0 | 0.00 | 0.00 | 0.00 | 46 | 1014.0 |
| 20260905025856 | 71 | 204 | 8.0 | 24.0 | 0.00 | 0.00 | 0.00 | 46 | 1014.0 |
| 20260905024855 | 71 | 204 | 8.0 | 24.0 | 0.00 | 0.00 | 0.00 | 46 | 1014.0 |
| 20260905023855 | 71 | 204 | 8.0 | 24.0 | 0.00 | 0.00 | 0.00 | 46 | 1014.0 |
| 20260905022854 | 71 | 204 | 8.0 | 24.0 | 0.00 | 0.00 | 0.00 | 46 | 1014.0 |
| 20260905021854 | 71 | 204 | 8.0 | 24.0 | 0.00 | 0.00 | 0.00 | 46 | 1014.0 |
| 20260905020854 | 71 | 204 | 8.0 | 24.0 | 0.00 | 0.00 | 0.00 | 46 | 1014.0 |
| 20260905015853 | 71 | 204 | 8.0 | 24.0 | 0.00 | 0.00 | 0.00 | 46 | 1014.0 |
| 20260905014853 | 71 | 204 | 8.0 | 24.0 | 0.00 | 0.00 | 0.00 | 46 | 1015.0 |
| 20260905013852 | 71 | 204 | 8.0 | 24.0 | 0.00 | 0.00 | 0.00 | 46 | 1014.0 |
| 20260905012852 | 71 | 204 | 8.0 | 24.0 | 0.00 | 0.00 | 0.00 | 46 | 1014.0 |
| 20260905011852 | 71 | 204 | 8.0 | 24.0 | 0.00 | 0.00 | 0.00 | 46 | 1014.0 |
| 20260905010851 | 71 | 204 | 8.0 | 24.0 | 0.00 | 0.00 | 0.00 | 46 | 1014.0 |
| 20260905005851 | 71 | 204 | 8.0 | 24.0 | 0.00 | 0.00 | 0.00 | 46 | 1014.0 |
| 20260905004851 | 71 | 204 | 8.0 | 24.0 | 0.00 | 0.00 | 0.00 | 46 | 1014.0 |
| 20260905003850 | 71 | 204 | 8.0 | 24.0 | 0.00 | 0.00 | 0.00 | 46 | 1014.0 |
| 20260905002845 | 71 | 204 | 8.0 | 24.0 | 0.00 | 0.00 | 0.00 | 46 | 1014.0 |